Regional Weather Roundup
Issued by NWS

Home | Current Version | Previous Version | Text Only | Print | Product List | Glossary Off
Versions: 1 2 3 4 5 6 7 8 9 10 11 12 13 14 15 16 17 18 19 20 21 22 23 24 25 26 27 28 29 30 31 32 33 34 35 36 37 38 39 40 41 42 43 44 45 46 47 48 49 50

000
ASUS43 KFSD 122010
RWRSD

WEATHER ROUNDUP FOR SOUTH DAKOTA
NATIONAL WEATHER SERVICE SIOUX FALLS SD
200 PM CST FRI FEB 12 2016

NOTE: "FAIR" INDICATES FEW OR NO CLOUDS BELOW 12,000 FEET WITH NO
SIGNIFICANT WEATHER AND/OR OBSTRUCTIONS TO VISIBILITY.


SDZ001>005-009-010-012>017-122100-
NORTHWEST AND NORTH CENTRAL SOUTH DAKOTA

CITY           SKY/WX    TMP DP  RH WIND       PRES   REMARKS
BUFFALO          N/A     24  17  74 E12       30.31F WCI  13
FAITH            N/A     21  12  68 E10       30.45F WCI  10
MOBRIDGE       SUNNY     17   6  62 E7        30.52F WCI   8
$$

SDZ012>016-024>037-041>051-057-063-072>074-122100-
SOUTHWEST AND SOUTH CENTRAL SOUTH DAKOTA

CITY           SKY/WX    TMP DP  RH WIND       PRES   REMARKS
RAPID CTY ARPT FOG       26  25  96 SE15      30.36F VSB 1/2 WCI  14
PIERRE         CLOUDY    22  13  68 E7        30.52F WCI  13
CUSTER         CLOUDY    30  24  78 SW9G21    30.25F WCI  22
ELLSWORTH AFB  FRZ DRZL  27  27 100 E12       30.36  VSB 1/4 WCI  16
PHILIP         CLOUDY    25  16  68 VRB5      30.47F WCI  19
PINE RIDGE     CLOUDY    32  26  78 E6        30.37F WCI  26
SPEARFISH      PTSUNNY   30  27  86 SE9       30.31F WCI  22
WINNER         CLOUDY    24  12  60 NE6       30.49F WCI  17
$$

SDZ004>011-016>023-039-040-122100-
NORTHEAST SOUTH DAKOTA

CITY           SKY/WX    TMP DP  RH WIND       PRES   REMARKS
ABERDEEN       SUNNY      8  -5  55 N13       30.62S WCI  -8
WATERTOWN      SUNNY      4  -7  60 N16       30.52F WCI -15
BROOKINGS      SUNNY      8  -4  58 N15       30.51F WCI  -9
SISSETON         N/A      2  -8  63 N18       30.60F WCI -19
$$

SDZ017-020-022-023-036>040-048>070-122100-
SOUTHEAST SOUTH DAKOTA

CITY           SKY/WX    TMP DP  RH WIND       PRES   REMARKS
SIOUX FALLS    MOSUNNY   11   1  64 N18       30.54S WCI  -7
HURON          SUNNY     12   2  64 N14G21    30.59F WCI  -3
CHAMBERLAIN    FLURRIES  19  11  71 NE6       30.54F WCI  11
MITCHELL       MOSUNNY   15   4  61 N15       30.59S WCI   0
YANKTON        SUNNY     16   3  57 N13       30.57S WCI   2
$$

ABBREVIATIONS USED IN REMARKS
   TC - TEMPERATURE IN CELSIUS
  WCI - WIND CHILL INDEX
   HX - HEAT INDEX
  VSB - VISIBILITY




USA.gov is the U.S. government's official web portal to all federal, state and local government web resources and services.